Skip Page Navigation
NASA JPL Caltech
NASA Logo - Jet Propulsion Laboratory + View the NASA Portal
+ Near-Earth Object (NEO) Program
Search JPL
JPL Home Earth Solar System Stars & Galaxies Technology
JPL Solar System Dynamics
BODIES ORBITS EPHEMERIDES TOOLS PHYSICAL DATA DISCOVERY FAQ SITE MAP
JPL Small-Body Database Browser
Search: [ help ]  
19140 Jansmit (1989 RJ2)
Classification: Main-belt Asteroid          SPK-ID: 2019140
Ephemeris | Orbit Diagram | Orbital Elements | Physical Parameters | Discovery Circumstances ]

[ hide orbit diagram ]
Orbit Diagram
Note: Make sure you have Java enabled on your browser to see the applet. This applet is provided as a 3D orbit visualization tool. The applet was implemented using 2-body methods, and hence should not be used for determining accurate long-term trajectories (over several years or decades) or planetary encounter circumstances. For accurate long-term ephemerides, please instead use our Horizons system.
Orbit Viewer

Additional Notes: the orbits shown in the applet are color coded. The planets are white lines, and the asteroid/comet is a blue line. The bright white line indicates the portion of the orbit that is above the ecliptic plane, and the darker portion is below the ecliptic plane. Likewise for the asteroid/comet orbit, the light blue indicates the portion above the ecliptic plane, and the dark blue the portion below the ecliptic plane.

Orbit Viewer applet originally written and kindly provided by Osamu Ajiki (AstroArts), and further modified by Ron Baalke (JPL).


Orbital Elements at Epoch 2456400.5 (2013-Apr-18.0) TDB
Reference: MPO229185 (heliocentric ecliptic J2000)
 Element Value Uncertainty (1-sigma)   Units 
e 0.2541139 n/a  
a 2.3236513 n/a AU
q 1.7331792 n/a AU
i 21.63270 n/a deg
node 250.01908 n/a deg
peri 131.68891 n/a deg
M 223.40279 n/a deg
tp 2456891.4013211
(2014-Aug-21.90132110)
n/a JED
period 1293.7634349
3.54
n/a
n/a
d
yr
n 0.27825798 n/a deg/d
Q 2.9141234 n/a AU
  Orbit Determination Parameters
   # obs. used (total)      402  
   first obs. used      1955-??-??  
   last obs. used      2012-04-25  
   # oppositions      13  
   planetary ephem.      DE403  
   condition code      0  
   fit RMS      0.54  
   data source      MPC:mpn  
   producer      MPCLINUX  

Additional Information
 T_jup = 3.441 

Ephemeris | Orbit Diagram | Orbital Elements | Physical Parameters | Discovery Circumstances ]

Physical Parameter Table
Parameter Symbol Value Units Sigma Reference Notes
absolute magnitude H 14.1 mag n/a PDS3 (MPO 6460)  

19140 Jansmit           Discovered 1989 Sept. 2 by C. S. Shoemaker and E. M. Shoemaker at Palomar.
Jan Smit (b. 1948) has made important contributions to geology and paleontology by establishing the sequence of impact-generated events that occurred 65 million years ago, including ejecta fallout, tsunami propagation, geochemical disturbances and extinction of foraminifera and dinosaurs.
NOTE: some special characters may not display properly (any characters within {} are an attempt to place the proper accent above a character)
Reference: 20020526/MPCPages.arcLast Updated: 2003-10-02

Alternate Designations
 1989 RJ2 = 1975 VE9 = 1999 JK122 
Ephemeris | Orbit Diagram | Orbital Elements | Physical Parameters | Discovery Circumstances ]
ABOUT SSD CREDITS/AWARDS PRIVACY/COPYRIGHT GLOSSARY LINKS
FirstGov 2013-May-19 23:03 UT
(server date/time)  
NASA Home Page
Site Manager:   Donald K. Yeomans
Webmaster  Alan B. Chamberlin